Retour au catalogue

STARLINK-31343

ActifCommunicationsVLEO
NORAD 59093·PAYLOAD·🇺🇸 United States

Lancé Feb 29, 2024 depuis Cape Canaveral Space Force Station

Loading…

Prochains Passages (prochaines 24 heures)

TLE

FraisSource: CelesTrak SupGP

Époque: Sep 15, 2026, 02:10 UTC

1 59093C 24041V   26258.09076389  .00043839  00000+0  15876-2 0  2585
2 59093  43.0017 321.3240 0001557 267.7979 137.2099 15.27560758    11

Suivez STARLINK-31343 en temps réel avec AllMySat

Download on the App Store